Change the Weather History Date:

Friday, September 14, 2012

  Actual Average Record
Temperature  
Mean Temperature 75 °F -  
Max Temperature 91 °F 88 °F 104 °F (1979)
Min Temperature 59 °F 56 °F 43 °F (1970)
Degree Days  
Heating Degree Days 0    
Month to date heating degree days 0  
Cooling Degree Days 10    
Month to date cooling degree days 124  
Year to date cooling degree days 1125  
Growing Degree Days 25 (Base 50)    
Moisture  
Dew Point 53 °F    
Average Humidity 53    
Maximum Humidity 78    
Minimum Humidity 28    
Precipitation  
Precipitation 0.00 in 0.01 in 0.42 in (1955)
Month to date precipitation T 0.10  
Year to date precipitation 9.89 12.05  
Since 1 July precipitation 0.03 0.15  
Sea Level Pressure  
Sea Level Pressure 29.99 in    
Wind  
Wind Speed 4 mph (South)    
Max Wind Speed 9 mph    
Max Gust Speed 13 mph    
Visibility 10 miles    
Events      
T = Trace of Precipitation, MM = Missing Value Source: NWS Daily Summary

Daily Weather History Graph

Daily Weather History Graph

Search for Another Location

Airport or City:

Trip Planner

Search our weather history database for the weather conditions in past years. The results will help you decide how hot, cold, wet, or windy it might be!

Date:

Astronomy

Sep. 14, 2012 Rise Set
Actual Time 6:47 AM PDT 7:14 PM PDT
Civil Twilight 6:20 AM PDT 7:41 PM PDT
Nautical Twilight 5:49 AM PDT 8:12 PM PDT
Astronomical Twilight 5:17 AM PDT 8:44 PM PDT
Moon 5:17 AM PDT (9/14) 6:14 PM PDT (9/14)
Length of Visible Light 13h 20m
Length of Day
12h 27m
Waning Crescent, 2% of the Moon is Illuminated
Sep 14
Waning Crescent
Sep 15
New
Sep 22
First Quarter
Sep 29
Full
Oct 8
Last Quarter

Hourly Weather History & Observations

Time (PDT) Temp. Heat Index Dew Point Humidity Pressure Visibility Wind Dir Wind Speed Gust Speed Precip Events Conditions
12:53 AM 64.9 °F - 52.0 °F 63% 29.99 in 10.0 mi South 3.5 mph - N/A   Clear
1:53 AM 64.0 °F - 52.0 °F 65% 30.00 in 10.0 mi South 5.8 mph - N/A   Clear
2:53 AM 64.0 °F - 52.0 °F 65% 29.99 in 10.0 mi Calm Calm - N/A   Clear
3:53 AM 64.0 °F - 52.0 °F 65% 29.99 in 10.0 mi South 3.5 mph - N/A   Clear
4:53 AM 62.1 °F - 52.0 °F 70% 30.00 in 10.0 mi SSE 4.6 mph - N/A   Clear
5:53 AM 60.1 °F - 52.0 °F 75% 30.00 in 10.0 mi South 4.6 mph - N/A   Clear
6:53 AM 59.0 °F - 52.0 °F 78% 30.01 in 10.0 mi Calm Calm - N/A   Clear
7:53 AM 60.1 °F - 53.1 °F 78% 30.03 in 10.0 mi South 5.8 mph - N/A   Clear
8:53 AM 63.0 °F - 53.1 °F 70% 30.04 in 10.0 mi SSW 6.9 mph - N/A   Clear
9:53 AM 69.1 °F - 54.0 °F 58% 30.05 in 10.0 mi South 8.1 mph - N/A   Clear
10:53 AM 73.0 °F - 55.0 °F 53% 30.05 in 10.0 mi South 5.8 mph - N/A   Clear
11:53 AM 78.1 °F - 57.0 °F 48% 30.05 in 10.0 mi South 5.8 mph - N/A   Clear
12:53 PM 81.0 °F 80.8 °F 55.9 °F 42% 30.03 in 10.0 mi SW 5.8 mph - N/A   Clear
1:53 PM 86.0 °F 84.5 °F 55.0 °F 35% 30.01 in 10.0 mi South 4.6 mph - N/A   Clear
2:53 PM 90.0 °F 87.7 °F 54.0 °F 29% 29.98 in 10.0 mi Variable 6.9 mph - N/A   Clear
3:53 PM 90.0 °F 88.1 °F 55.9 °F 31% 29.96 in 10.0 mi SSW 5.8 mph - N/A   Clear
4:53 PM 91.0 °F 88.7 °F 54.0 °F 28% 29.94 in 10.0 mi Variable 4.6 mph - N/A   Clear
5:53 PM 87.1 °F - 51.1 °F 29% 29.93 in 10.0 mi SSW 6.9 mph - N/A   Clear
6:53 PM 82.9 °F 82.0 °F 55.0 °F 38% 29.94 in 10.0 mi SSW 4.6 mph - N/A   Clear
7:53 PM 75.0 °F - 51.1 °F 43% 29.95 in 10.0 mi SSW 6.9 mph - N/A   Clear
8:53 PM 71.1 °F - 50.0 °F 47% 29.96 in 10.0 mi South 6.9 mph - N/A   Clear
9:53 PM 66.9 °F - 50.0 °F 54% 29.97 in 10.0 mi Variable 3.5 mph - N/A   Clear
10:53 PM 64.9 °F - 50.0 °F 58% 29.98 in 10.0 mi South 3.5 mph - N/A   Clear
11:53 PM 63.0 °F - 50.0 °F 63% 29.99 in 10.0 mi South 3.5 mph - N/A   Clear